| time (UTC) | temp F | wind direction | speed knots | gust knots | rain 1hr in | rain 24hr in | rain mn in | humidity % | barometer mb |
| 20260902110534 | 65 | 250 | 10.4 | 17.4 | 0.00 | 0.00 | 0.00 | 54 | 1008.9 |
| 20260902110050 | 65 | 218 | 5.2 | 12.2 | 0.00 | 0.00 | 0.00 | 54 | 1008.8 |
| 20260902105535 | 64 | 255 | 5.2 | 10.4 | 0.00 | 0.00 | 0.00 | 54 | 1008.9 |
| 20260902105034 | 64 | 283 | 3.5 | 13.0 | 0.00 | 0.00 | 0.00 | 55 | 1009.0 |
| 20260902104610 | 64 | 304 | 6.1 | 16.5 | 0.00 | 0.00 | 0.00 | 54 | 1009.0 |
| 20260902104036 | 65 | 252 | 8.7 | 17.4 | 0.00 | 0.00 | 0.00 | 53 | 1009.0 |
| 20260902103532 | 65 | 231 | 8.7 | 17.4 | 0.00 | 0.00 | 0.00 | 53 | 1008.9 |
| 20260902103106 | 65 | 225 | 7.0 | 17.4 | 0.00 | 0.00 | 0.00 | 54 | 1008.9 |
| 20260902102534 | 64 | 256 | 7.8 | 13.0 | 0.00 | 0.00 | 0.00 | 55 | 1009.0 |
| 20260902102031 | 64 | 248 | 5.2 | 14.8 | 0.00 | 0.00 | 0.00 | 55 | 1009.0 |
| 20260902101554 | 63 | 255 | 7.8 | 14.8 | 0.00 | 0.00 | 0.00 | 54 | 1009.0 |
| 20260902101032 | 63 | 250 | 7.8 | 13.0 | 0.00 | 0.00 | 0.00 | 56 | 1009.0 |
| 20260902100532 | 64 | 224 | 6.1 | 13.0 | 0.00 | 0.00 | 0.00 | 55 | 1009.0 |
| 20260902100044 | 63 | 308 | 7.8 | 13.0 | 0.00 | 0.00 | 0.00 | 54 | 1009.0 |
| 20260902095534 | 64 | 294 | 7.8 | 16.5 | 0.00 | 0.00 | 0.00 | 54 | 1009.0 |
| 20260902095032 | 63 | 232 | 8.7 | 16.5 | 0.00 | 0.00 | 0.00 | 55 | 1009.1 |
| 20260902094552 | 63 | 252 | 7.0 | 13.0 | 0.00 | 0.00 | 0.00 | 57 | 1009.0 |
| 20260902094031 | 63 | 323 | 4.3 | 14.8 | 0.00 | 0.00 | 0.00 | 55 | 1009.1 |
| 20260902093534 | 63 | 236 | 8.7 | 14.8 | 0.00 | 0.00 | 0.00 | 54 | 1009.0 |
| 20260902093047 | 63 | 224 | 8.7 | 14.8 | 0.00 | 0.00 | 0.00 | 55 | 1009.1 |
| 20260902092532 | 63 | 221 | 5.2 | 13.0 | 0.00 | 0.00 | 0.00 | 55 | 1009.1 |
| 20260902092034 | 63 | 268 | 4.3 | 14.8 | 0.00 | 0.00 | 0.00 | 57 | 1009.0 |
| 20260902091547 | 62 | 289 | 6.1 | 14.8 | 0.00 | 0.00 | 0.00 | 58 | 1009.1 |
| 20260902091035 | 63 | 250 | 7.8 | 12.2 | 0.00 | 0.00 | 0.00 | 56 | 1009.2 |
| 20260902090535 | 63 | 214 | 3.5 | 10.4 | 0.00 | 0.00 | 0.00 | 59 | 1009.2 |
| 20260902090051 | 62 | 206 | 5.2 | 9.6 | 0.00 | 0.00 | 0.00 | 58 | 1009.2 |
| 20260902085534 | 62 | 263 | 6.1 | 10.4 | 0.00 | 0.00 | 0.00 | 59 | 1009.2 |
| 20260902085034 | 61 | 219 | 3.5 | 15.6 | 0.00 | 0.00 | 0.00 | 60 | 1009.2 |
| 20260902084554 | 61 | 258 | 7.8 | 15.6 | 0.00 | 0.00 | 0.00 | 57 | 1009.3 |
| 20260902084032 | 61 | 219 | 6.1 | 11.3 | 0.00 | 0.00 | 0.00 | 58 | 1009.2 |
| 20260902083533 | 61 | 292 | 6.1 | 11.3 | 0.00 | 0.00 | 0.00 | 58 | 1009.1 |
| 20260902083051 | 61 | 278 | 5.2 | 9.6 | 0.00 | 0.00 | 0.00 | 58 | 1009.1 |
| 20260902082531 | 61 | 236 | 4.3 | 8.7 | 0.00 | 0.00 | 0.00 | 61 | 1009.1 |
| 20260902082031 | 60 | 252 | 5.2 | 8.7 | 0.00 | 0.00 | 0.00 | 62 | 1009.1 |
| 20260902081552 | 60 | 218 | 5.2 | 10.4 | 0.00 | 0.00 | 0.00 | 60 | 1009.1 |
| 20260902081031 | 60 | 212 | 5.2 | 10.4 | 0.00 | 0.00 | 0.00 | 62 | 1009.0 |
| 20260902080531 | 60 | 244 | 7.0 | 10.4 | 0.00 | 0.00 | 0.00 | 61 | 1009.1 |
| 20260902080050 | 59 | 229 | 4.3 | 8.7 | 0.00 | 0.00 | 0.00 | 65 | 1009.1 |
| 20260902075531 | 59 | 260 | 5.2 | 8.7 | 0.00 | 0.00 | 0.00 | 66 | 1009.1 |
| 20260902075032 | 59 | 303 | 3.5 | 10.4 | 0.00 | 0.00 | 0.00 | 65 | 1009.0 |
| 20260902074547 | 58 | 278 | 5.2 | 10.4 | 0.00 | 0.00 | 0.00 | 66 | 1009.0 |
| 20260902074034 | 58 | 177 | 4.3 | 8.7 | 0.00 | 0.00 | 0.00 | 68 | 1008.9 |
| 20260902073534 | 58 | 207 | 5.2 | 7.8 | 0.00 | 0.00 | 0.00 | 68 | 1008.9 |
| 20260902073053 | 57 | 239 | 4.3 | 7.8 | 0.00 | 0.00 | 0.00 | 71 | 1008.9 |
| 20260902072531 | 57 | 214 | 4.3 | 7.8 | 0.00 | 0.00 | 0.00 | 72 | 1008.8 |
| 20260902072059 | 57 | 214 | 4.3 | 9.6 | 0.00 | 0.00 | 0.00 | 71 | 1008.8 |
| 20260902071552 | 57 | 214 | 5.2 | 9.6 | 0.00 | 0.00 | 0.00 | 73 | 1008.8 |
| 20260902071031 | 56 | 214 | 4.3 | 7.8 | 0.00 | 0.00 | 0.00 | 74 | 1008.8 |
| 20260902070534 | 56 | 213 | 4.3 | 7.8 | 0.00 | 0.00 | 0.00 | 75 | 1008.8 |
| 20260902070050 | 56 | 221 | 5.2 | 7.8 | 0.00 | 0.00 | 0.00 | 77 | 1008.7 |
| 20260902065534 | 55 | 229 | 4.3 | 7.8 | 0.00 | 0.00 | 0.00 | 78 | 1008.8 |
| 20260902065035 | 55 | 230 | 4.3 | 10.4 | 0.00 | 0.00 | 0.00 | 79 | 1008.7 |
| 20260902064547 | 55 | 257 | 5.2 | 10.4 | 0.00 | 0.00 | 0.00 | 80 | 1008.6 |
| 20260902064034 | 55 | 241 | 6.1 | 10.4 | 0.00 | 0.00 | 0.00 | 79 | 1008.7 |
| 20260902063532 | 55 | 216 | 5.2 | 10.4 | 0.00 | 0.00 | 0.00 | 80 | 1008.5 |
| 20260902063106 | 54 | 227 | 4.3 | 7.0 | 0.00 | 0.00 | 0.00 | 82 | 1008.4 |
| 20260902062536 | 53 | 234 | 3.5 | 7.0 | 0.00 | 0.00 | 0.00 | 84 | 1008.4 |
| 20260902062034 | 53 | 215 | 3.5 | 7.0 | 0.00 | 0.00 | 0.00 | 86 | 1008.5 |
| 20260902061040 | 52 | 238 | 1.7 | 5.2 | 0.00 | 0.00 | 0.00 | 88 | 1008.4 |
| 20260902060534 | 52 | 207 | 0.9 | 5.2 | 0.00 | 0.00 | 0.00 | 89 | 1008.3 |
| 20260902060058 | 51 | 220 | 1.7 | 3.5 | 0.00 | 0.00 | 0.00 | 90 | 1008.3 |
| 20260902055533 | 51 | 199 | 0.9 | 2.6 | 0.00 | 0.00 | 0.00 | 91 | 1008.1 |
| 20260902055033 | 51 | 133 | 0.0 | 5.2 | 0.00 | 0.00 | 0.00 | 92 | 1008.0 |
| 20260902054555 | 51 | 271 | 0.9 | 6.1 | 0.00 | 0.00 | 0.00 | 93 | 1008.2 |
| 20260902054032 | 50 | 139 | 3.5 | 6.1 | 0.00 | 0.00 | 0.00 | 93 | 1008.0 |
| 20260902053536 | 50 | 0 | 0.0 | 3.5 | 0.00 | 0.00 | 0.00 | 93 | 1007.9 |
| 20260902053047 | 49 | 0 | 0.0 | 3.5 | 0.00 | 0.00 | 0.00 | 93 | 1007.9 |
| 20260902052532 | 49 | 109 | 0.0 | 0.9 | 0.00 | 0.00 | 0.00 | 93 | 1007.9 |
| 20260902052031 | 49 | 0 | 0.0 | 0.0 | 0.00 | 0.00 | 0.00 | 92 | 1007.9 |
| 20260902051557 | 49 | 0 | 0.0 | 0.0 | 0.00 | 0.00 | 0.00 | 92 | 1008.1 |
| 20260902051031 | 49 | 0 | 0.0 | 1.7 | 0.00 | 0.00 | 0.00 | 92 | 1008.0 |
| 20260902050532 | 49 | 0 | 0.0 | 1.7 | 0.00 | 0.00 | 0.00 | 92 | 1008.0 |
| 20260902050046 | 49 | 143 | 0.0 | 0.9 | 0.00 | 0.00 | 0.00 | 92 | 1008.1 |
| 20260902045531 | 49 | 0 | 0.0 | 2.6 | 0.00 | 0.00 | 0.00 | 92 | 1008.0 |
| 20260902045034 | 49 | 162 | 0.0 | 2.6 | 0.00 | 0.00 | 0.00 | 92 | 1008.1 |
| 20260902044606 | 49 | 207 | 0.9 | 2.6 | 0.00 | 0.00 | 0.00 | 91 | 1007.9 |
| 20260902044032 | 50 | 0 | 0.0 | 2.6 | 0.00 | 0.00 | 0.00 | 91 | 1008.0 |
| 20260902043530 | 50 | 0 | 0.0 | 2.6 | 0.00 | 0.00 | 0.00 | 92 | 1007.9 |
| 20260902043049 | 50 | 24 | 0.9 | 2.6 | 0.00 | 0.00 | 0.00 | 92 | 1008.0 |
| 20260902042532 | 49 | 0 | 0.9 | 1.7 | 0.00 | 0.00 | 0.00 | 91 | 1007.9 |
| 20260902042034 | 49 | 0 | 0.0 | 1.7 | 0.00 | 0.00 | 0.00 | 91 | 1007.8 |
| 20260902041557 | 50 | 79 | 0.9 | 1.7 | 0.00 | 0.00 | 0.00 | 91 | 1007.9 |
| 20260902041031 | 49 | 0 | 0.0 | 1.7 | 0.00 | 0.00 | 0.00 | 91 | 1007.8 |
| 20260902040531 | 50 | 94 | 0.9 | 1.7 | 0.00 | 0.00 | 0.00 | 91 | 1007.8 |
| 20260902040054 | 50 | 87 | 0.0 | 1.7 | 0.00 | 0.00 | 0.00 | 90 | 1007.8 |
| 20260902035531 | 50 | 104 | 0.0 | 1.7 | 0.00 | 0.00 | 0.00 | 90 | 1007.8 |
| 20260902035035 | 50 | 0 | 0.0 | 0.0 | 0.00 | 0.00 | 0.00 | 90 | 1007.8 |
| 20260902034552 | 50 | 0 | 0.0 | 0.0 | 0.00 | 0.00 | 0.00 | 90 | 1007.9 |
| 20260902034034 | 50 | 0 | 0.0 | 0.0 | 0.00 | 0.00 | 0.00 | 90 | 1007.9 |
| 20260902033531 | 50 | 0 | 0.0 | 0.0 | 0.00 | 0.00 | 0.00 | 89 | 1007.9 |
| 20260902033045 | 51 | 0 | 0.0 | 0.0 | 0.00 | 0.00 | 0.00 | 89 | 1007.8 |
| 20260902032534 | 51 | 0 | 0.0 | 0.0 | 0.00 | 0.00 | 0.00 | 89 | 1007.8 |
| 20260902032030 | 51 | 0 | 0.0 | 1.7 | 0.00 | 0.00 | 0.00 | 89 | 1007.9 |
| 20260902031601 | 51 | 0 | 0.0 | 4.3 | 0.00 | 0.00 | 0.00 | 89 | 1007.8 |
| 20260902031035 | 51 | 169 | 0.9 | 4.3 | 0.00 | 0.00 | 0.00 | 89 | 1007.8 |
| 20260902030537 | 51 | 0 | 0.0 | 1.7 | 0.00 | 0.00 | 0.00 | 89 | 1007.8 |
| 20260902030057 | 51 | 0 | 0.0 | 1.7 | 0.00 | 0.00 | 0.00 | 89 | 1007.8 |
| 20260902025535 | 51 | 0 | 0.0 | 1.7 | 0.00 | 0.00 | 0.00 | 89 | 1007.8 |
| 20260902025034 | 51 | 0 | 0.0 | 1.7 | 0.00 | 0.00 | 0.00 | 89 | 1007.7 |
| 20260902024557 | 51 | 0 | 0.0 | 1.7 | 0.00 | 0.00 | 0.00 | 89 | 1007.9 |
| 20260902024033 | 52 | 0 | 0.0 | 1.7 | 0.00 | 0.00 | 0.00 | 89 | 1007.8 |
| 20260902023536 | 51 | 0 | 0.0 | 1.7 | 0.00 | 0.00 | 0.00 | 89 | 1007.9 |
| 20260902023047 | 52 | 109 | 0.0 | 0.9 | 0.00 | 0.00 | 0.00 | 88 | 1007.8 |
| 20260902022532 | 52 | 0 | 0.0 | 0.9 | 0.00 | 0.00 | 0.00 | 88 | 1007.8 |
| 20260902022033 | 52 | 0 | 0.0 | 1.7 | 0.00 | 0.00 | 0.00 | 87 | 1008.0 |
| 20260902021553 | 53 | 0 | 0.0 | 2.6 | 0.00 | 0.00 | 0.00 | 87 | 1007.9 |
| 20260902021034 | 53 | 82 | 0.0 | 2.6 | 0.00 | 0.00 | 0.00 | 87 | 1007.8 |
| 20260902020533 | 53 | 102 | 1.7 | 2.6 | 0.00 | 0.00 | 0.00 | 87 | 1007.9 |
| 20260902020058 | 53 | 125 | 0.9 | 2.6 | 0.00 | 0.00 | 0.00 | 86 | 1008.0 |
| 20260902015533 | 53 | 134 | 0.9 | 2.6 | 0.00 | 0.00 | 0.00 | 85 | 1007.9 |
| 20260902015036 | 54 | 185 | 0.9 | 4.3 | 0.00 | 0.00 | 0.00 | 85 | 1007.9 |
| 20260902014546 | 54 | 155 | 0.0 | 4.3 | 0.00 | 0.00 | 0.00 | 86 | 1008.0 |
| 20260902014035 | 54 | 209 | 2.6 | 4.3 | 0.00 | 0.00 | 0.00 | 86 | 1008.1 |
| 20260902013533 | 53 | 256 | 2.6 | 3.5 | 0.00 | 0.00 | 0.00 | 87 | 1008.1 |
| 20260902013047 | 53 | 187 | 1.7 | 4.3 | 0.00 | 0.00 | 0.00 | 87 | 1008.2 |
| 20260902012534 | 53 | 0 | 0.0 | 4.3 | 0.00 | 0.00 | 0.00 | 88 | 1008.2 |
| 20260902012033 | 53 | 178 | 2.6 | 5.2 | 0.00 | 0.00 | 0.00 | 88 | 1008.1 |
| 20260902011551 | 53 | 216 | 2.6 | 5.2 | 0.00 | 0.00 | 0.00 | 87 | 1008.0 |
| 20260902011037 | 54 | 207 | 2.6 | 5.2 | 0.00 | 0.00 | 0.00 | 87 | 1008.1 |
| 20260902010530 | 55 | 184 | 2.6 | 5.2 | 0.00 | 0.00 | 0.00 | 88 | 1008.1 |
| 20260902010047 | 55 | 224 | 0.9 | 3.5 | 0.00 | 0.00 | 0.00 | 89 | 1008.3 |
| 20260902005531 | 55 | 217 | 0.9 | 2.6 | 0.00 | 0.00 | 0.00 | 89 | 1008.1 |
| 20260902005031 | 55 | 143 | 0.0 | 2.6 | 0.00 | 0.00 | 0.00 | 90 | 1008.3 |
| 20260902004556 | 54 | 141 | 1.7 | 3.5 | 0.00 | 0.00 | 0.00 | 90 | 1008.2 |
| 20260902004032 | 55 | 206 | 1.7 | 5.2 | 0.00 | 0.00 | 0.00 | 90 | 1008.3 |
| 20260902003530 | 55 | 227 | 3.5 | 5.2 | 0.00 | 0.00 | 0.00 | 90 | 1008.2 |
| 20260902003053 | 55 | 224 | 1.7 | 5.2 | 0.00 | 0.00 | 0.00 | 91 | 1008.3 |
| 20260902002533 | 56 | 206 | 2.6 | 6.1 | 0.00 | 0.00 | 0.00 | 91 | 1008.3 |
| 20260902002030 | 55 | 178 | 2.6 | 6.1 | 0.00 | 0.00 | 0.00 | 92 | 1008.3 |
| 20260902001551 | 56 | 165 | 2.6 | 6.1 | 0.00 | 0.00 | 0.00 | 92 | 1008.3 |
| 20260902001030 | 56 | 184 | 1.7 | 4.3 | 0.00 | 0.00 | 0.00 | 93 | 1008.4 |
| 20260902000530 | 56 | 212 | 1.7 | 4.3 | 0.00 | 0.00 | 0.00 | 93 | 1008.4 |
| 20260902000044 | 55 | 146 | 0.9 | 2.6 | 0.00 | 0.00 | 0.00 | 94 | 1008.4 |
| 20260901235532 | 55 | 0 | 0.0 | 2.6 | 0.00 | 0.00 | 0.00 | 94 | 1008.5 |
| 20260901235035 | 55 | 134 | 0.9 | 2.6 | 0.00 | 0.00 | 0.00 | 94 | 1008.4 |
| 20260901234547 | 55 | 0 | 0.0 | 3.5 | 0.00 | 0.00 | 0.00 | 94 | 1008.3 |
| 20260901234033 | 54 | 86 | 0.9 | 3.5 | 0.00 | 0.00 | 0.00 | 94 | 1008.3 |
| 20260901233531 | 54 | 105 | 0.9 | 3.5 | 0.00 | 0.00 | 0.00 | 94 | 1008.4 |
| 20260901233049 | 54 | 0 | 0.0 | 0.9 | 0.00 | 0.00 | 0.00 | 94 | 1008.2 |
| 20260901232531 | 54 | 0 | 0.0 | 0.9 | 0.00 | 0.00 | 0.00 | 94 | 1008.3 |
| 20260901232034 | 54 | 0 | 0.0 | 0.9 | 0.00 | 0.00 | 0.00 | 94 | 1008.5 |
| 20260901231550 | 54 | 110 | 0.0 | 0.9 | 0.00 | 0.00 | 0.00 | 94 | 1008.4 |
| 20260901231030 | 54 | 0 | 0.0 | 0.0 | 0.00 | 0.00 | 0.00 | 94 | 1008.4 |
| 20260901230534 | 54 | 0 | 0.0 | 1.7 | 0.00 | 0.00 | 0.00 | 94 | 1008.3 |
| 20260901230107 | 54 | 0 | 0.0 | 1.7 | 0.00 | 0.00 | 0.00 | 94 | 1008.1 |
| 20260901225533 | 54 | 109 | 0.0 | 0.0 | 0.00 | 0.00 | 0.00 | 94 | 1008.1 |
| 20260901225031 | 54 | 0 | 0.0 | 0.9 | 0.00 | 0.00 | 0.00 | 94 | 1008.1 |
| 20260901224550 | 54 | 0 | 0.0 | 2.6 | 0.00 | 0.00 | 0.00 | 94 | 1008.1 |
| 20260901224031 | 54 | 0 | 0.0 | 2.6 | 0.00 | 0.00 | 0.00 | 94 | 1008.1 |
| 20260901223534 | 54 | 98 | 0.9 | 2.6 | 0.00 | 0.00 | 0.00 | 93 | 1008.2 |
| 20260901223055 | 54 | 0 | 0.9 | 1.7 | 0.00 | 0.00 | 0.00 | 93 | 1008.2 |
| 20260901222536 | 54 | 0 | 0.0 | 0.0 | 0.00 | 0.00 | 0.00 | 93 | 1008.2 |
| 20260901222036 | 54 | 0 | 0.0 | 0.0 | 0.00 | 0.00 | 0.00 | 93 | 1008.2 |
| 20260901221607 | 55 | 0 | 0.0 | 0.0 | 0.00 | 0.00 | 0.00 | 93 | 1008.1 |
| 20260901221033 | 55 | 0 | 0.0 | 0.9 | 0.00 | 0.00 | 0.00 | 93 | 1008.2 |
| 20260901220532 | 55 | 0 | 0.0 | 1.7 | 0.00 | 0.00 | 0.00 | 93 | 1008.2 |
| 20260901220048 | 55 | 0 | 0.0 | 1.7 | 0.00 | 0.00 | 0.00 | 93 | 1008.2 |
| 20260901215535 | 55 | 104 | 0.9 | 1.7 | 0.00 | 0.00 | 0.00 | 93 | 1008.1 |
| 20260901215031 | 55 | 110 | 0.9 | 1.7 | 0.00 | 0.00 | 0.00 | 93 | 1008.1 |
| 20260901214546 | 55 | 112 | 0.9 | 1.7 | 0.00 | 0.00 | 0.00 | 93 | 1008.2 |
| 20260901214033 | 55 | 106 | 0.0 | 2.6 | 0.00 | 0.00 | 0.00 | 93 | 1008.1 |
| 20260901213537 | 56 | 140 | 0.0 | 2.6 | 0.00 | 0.00 | 0.00 | 93 | 1008.1 |
| 20260901213056 | 56 | 143 | 0.0 | 1.7 | 0.00 | 0.00 | 0.00 | 93 | 1008.0 |
| 20260901212533 | 56 | 117 | 0.0 | 1.7 | 0.00 | 0.00 | 0.00 | 93 | 1008.0 |
| 20260901212032 | 56 | 160 | 0.0 | 1.7 | 0.00 | 0.00 | 0.00 | 93 | 1008.1 |
| 20260901211551 | 55 | 0 | 0.0 | 1.7 | 0.00 | 0.00 | 0.00 | 93 | 1008.1 |
| 20260901211032 | 55 | 138 | 0.0 | 1.7 | 0.00 | 0.00 | 0.00 | 93 | 1008.2 |
| 20260901210534 | 56 | 141 | 0.0 | 3.5 | 0.00 | 0.00 | 0.00 | 93 | 1008.1 |
| 20260901210047 | 56 | 0 | 0.0 | 3.5 | 0.00 | 0.00 | 0.00 | 93 | 1008.2 |
| 20260901205532 | 55 | 123 | 1.7 | 2.6 | 0.00 | 0.00 | 0.00 | 92 | 1008.3 |
| 20260901205034 | 55 | 111 | 1.7 | 2.6 | 0.00 | 0.00 | 0.00 | 92 | 1008.3 |
| 20260901204544 | 56 | 124 | 1.7 | 2.6 | 0.00 | 0.00 | 0.00 | 92 | 1008.3 |
| 20260901204030 | 56 | 116 | 0.9 | 2.6 | 0.00 | 0.00 | 0.00 | 92 | 1008.5 |
| 20260901203533 | 56 | 105 | 0.9 | 2.6 | 0.00 | 0.00 | 0.00 | 92 | 1008.4 |
| 20260901203056 | 56 | 0 | 0.0 | 0.0 | 0.00 | 0.00 | 0.00 | 92 | 1008.5 |
| 20260901202533 | 56 | 0 | 0.0 | 0.0 | 0.00 | 0.00 | 0.00 | 91 | 1008.4 |
| 20260901202033 | 56 | 0 | 0.0 | 0.0 | 0.00 | 0.00 | 0.00 | 91 | 1008.6 |
| 20260901201550 | 56 | 0 | 0.0 | 0.0 | 0.00 | 0.00 | 0.00 | 91 | 1008.4 |
| 20260901201037 | 56 | 0 | 0.0 | 0.0 | 0.00 | 0.00 | 0.00 | 91 | 1008.4 |
| 20260901200530 | 56 | 0 | 0.0 | 0.0 | 0.00 | 0.00 | 0.00 | 91 | 1008.4 |
| 20260901200045 | 56 | 0 | 0.0 | 0.0 | 0.00 | 0.00 | 0.00 | 91 | 1008.5 |
| 20260901195530 | 57 | 0 | 0.0 | 0.0 | 0.00 | 0.00 | 0.00 | 91 | 1008.5 |
| 20260901195031 | 57 | 0 | 0.0 | 0.9 | 0.00 | 0.00 | 0.00 | 90 | 1008.5 |
| 20260901194544 | 57 | 0 | 0.0 | 1.7 | 0.00 | 0.00 | 0.00 | 90 | 1008.3 |
| 20260901194034 | 57 | 0 | 0.0 | 1.7 | 0.00 | 0.00 | 0.00 | 90 | 1008.6 |
| 20260901193533 | 57 | 168 | 0.0 | 0.9 | 0.00 | 0.00 | 0.00 | 90 | 1008.5 |
| 20260901193047 | 57 | 0 | 0.0 | 1.7 | 0.00 | 0.00 | 0.00 | 90 | 1008.6 |
| 20260901192537 | 57 | 0 | 0.0 | 2.6 | 0.00 | 0.00 | 0.00 | 90 | 1008.5 |
| 20260901192030 | 57 | 174 | 0.0 | 2.6 | 0.00 | 0.00 | 0.00 | 90 | 1008.4 |
| 20260901191545 | 57 | 168 | 0.9 | 2.6 | 0.00 | 0.00 | 0.00 | 89 | 1008.5 |
| 20260901191033 | 57 | 221 | 0.9 | 1.7 | 0.00 | 0.00 | 0.00 | 89 | 1008.5 |
| 20260901190533 | 58 | 210 | 0.0 | 1.7 | 0.00 | 0.00 | 0.00 | 89 | 1008.5 |
| 20260901190049 | 58 | 0 | 0.0 | 1.7 | 0.00 | 0.00 | 0.00 | 88 | 1008.6 |
| 20260901185634 | 58 | 0 | 0.0 | 3.5 | 0.00 | 0.00 | 0.00 | 88 | 1008.5 |
| 20260901185033 | 59 | 0 | 0.0 | 3.5 | 0.00 | 0.00 | 0.00 | 88 | 1008.6 |
| 20260901184545 | 59 | 127 | 1.7 | 3.5 | 0.00 | 0.00 | 0.00 | 88 | 1008.5 |
| 20260901184033 | 59 | 141 | 0.9 | 3.5 | 0.00 | 0.00 | 0.00 | 88 | 1008.5 |
| 20260901183533 | 59 | 206 | 1.7 | 5.2 | 0.00 | 0.00 | 0.00 | 88 | 1008.5 |
| 20260901183109 | 59 | 195 | 0.9 | 5.2 | 0.00 | 0.00 | 0.00 | 87 | 1008.5 |
| 20260901182533 | 59 | 153 | 1.7 | 4.3 | 0.00 | 0.00 | 0.00 | 87 | 1008.6 |
| 20260901182034 | 60 | 184 | 0.9 | 3.5 | 0.00 | 0.00 | 0.00 | 87 | 1008.6 |
| 20260901181552 | 60 | 0 | 0.9 | 3.5 | 0.00 | 0.00 | 0.00 | 86 | 1008.5 |
| 20260901181034 | 60 | 151 | 0.9 | 3.5 | 0.00 | 0.00 | 0.00 | 86 | 1008.6 |
| 20260901180533 | 60 | 158 | 1.7 | 3.5 | 0.00 | 0.00 | 0.00 | 86 | 1008.7 |
| 20260901180050 | 61 | 148 | 1.7 | 3.5 | 0.00 | 0.00 | 0.00 | 85 | 1008.6 |
| 20260901175533 | 61 | 128 | 0.9 | 6.1 | 0.00 | 0.00 | 0.00 | 85 | 1008.6 |
| 20260901175032 | 61 | 0 | 2.6 | 6.1 | 0.00 | 0.00 | 0.00 | 84 | 1008.5 |
| 20260901174547 | 61 | 110 | 1.7 | 6.1 | 0.00 | 0.00 | 0.00 | 83 | 1008.5 |
| 20260901174033 | 62 | 156 | 1.7 | 5.2 | 0.00 | 0.00 | 0.00 | 83 | 1008.7 |
| 20260901173532 | 62 | 207 | 0.9 | 5.2 | 0.00 | 0.00 | 0.00 | 82 | 1008.7 |
| 20260901173124 | 63 | 163 | 2.6 | 7.0 | 0.00 | 0.00 | 0.00 | 81 | 1008.7 |
| 20260901172533 | 63 | 205 | 2.6 | 7.8 | 0.00 | 0.00 | 0.00 | 80 | 1008.7 |
| 20260901172033 | 64 | 219 | 2.6 | 7.8 | 0.00 | 0.00 | 0.00 | 79 | 1008.7 |
| 20260901171556 | 64 | 221 | 3.5 | 11.3 | 0.00 | 0.00 | 0.00 | 79 | 1008.7 |
| 20260901171034 | 64 | 212 | 6.1 | 11.3 | 0.00 | 0.00 | 0.00 | 78 | 1008.8 |
| 20260901170533 | 64 | 179 | 6.1 | 11.3 | 0.00 | 0.00 | 0.00 | 78 | 1008.8 |
| 20260901165532 | 64 | 115 | 2.6 | 6.1 | 0.00 | 0.00 | 0.00 | 79 | 1008.7 |
| 20260901165032 | 63 | 207 | 3.5 | 6.1 | 0.00 | 0.00 | 0.00 | 80 | 1008.7 |
| 20260901164557 | 63 | 148 | 1.7 | 5.2 | 0.00 | 0.00 | 0.00 | 80 | 1008.7 |
| 20260901164032 | 63 | 108 | 1.7 | 6.1 | 0.00 | 0.00 | 0.00 | 80 | 1008.8 |
| 20260901163532 | 64 | 179 | 3.5 | 8.7 | 0.00 | 0.00 | 0.00 | 79 | 1008.8 |
| 20260901163108 | 64 | 160 | 3.5 | 8.7 | 0.00 | 0.00 | 0.00 | 79 | 1008.9 |
| 20260901162532 | 64 | 140 | 3.5 | 7.0 | 0.00 | 0.00 | 0.00 | 79 | 1008.9 |
| 20260901162035 | 64 | 183 | 2.6 | 6.1 | 0.00 | 0.00 | 0.00 | 78 | 1008.9 |
| 20260901161557 | 64 | 205 | 0.9 | 6.1 | 0.00 | 0.00 | 0.00 | 78 | 1008.8 |
| 20260901161031 | 64 | 213 | 1.7 | 6.1 | 0.00 | 0.00 | 0.00 | 78 | 1008.8 |
| 20260901160532 | 64 | 181 | 2.6 | 7.8 | 0.00 | 0.00 | 0.00 | 78 | 1008.7 |
| 20260901160056 | 64 | 158 | 2.6 | 7.8 | 0.00 | 0.00 | 0.00 | 78 | 1008.7 |
| 20260901155532 | 64 | 191 | 3.5 | 7.8 | 0.00 | 0.00 | 0.00 | 78 | 1008.6 |
| 20260901155032 | 65 | 171 | 1.7 | 5.2 | 0.00 | 0.00 | 0.00 | 77 | 1008.7 |
| 20260901154548 | 65 | 190 | 1.7 | 5.2 | 0.00 | 0.00 | 0.00 | 77 | 1008.7 |
| 20260901154032 | 65 | 65 | 0.9 | 5.2 | 0.00 | 0.00 | 0.00 | 76 | 1008.8 |
| 20260901153533 | 65 | 153 | 1.7 | 4.3 | 0.00 | 0.00 | 0.00 | 76 | 1008.8 |
| 20260901153046 | 66 | 141 | 1.7 | 6.1 | 0.00 | 0.00 | 0.00 | 75 | 1008.9 |
| 20260901152538 | 66 | 191 | 1.7 | 6.1 | 0.00 | 0.00 | 0.00 | 74 | 1008.9 |
| 20260901152033 | 66 | 184 | 2.6 | 7.0 | 0.00 | 0.00 | 0.00 | 73 | 1008.9 |
| 20260901151558 | 67 | 102 | 2.6 | 10.4 | 0.00 | 0.00 | 0.00 | 73 | 1008.9 |
| 20260901151031 | 67 | 185 | 2.6 | 10.4 | 0.00 | 0.00 | 0.00 | 72 | 1008.9 |
| 20260901150532 | 67 | 155 | 2.6 | 7.0 | 0.00 | 0.00 | 0.00 | 74 | 1008.9 |
| 20260901150055 | 67 | 98 | 2.6 | 7.0 | 0.00 | 0.00 | 0.00 | 73 | 1008.8 |
| 20260901145533 | 67 | 131 | 1.7 | 6.1 | 0.00 | 0.00 | 0.00 | 72 | 1008.9 |
| 20260901145031 | 68 | 135 | 3.5 | 6.1 | 0.00 | 0.00 | 0.00 | 70 | 1009.0 |
| 20260901144547 | 68 | 134 | 2.6 | 6.1 | 0.00 | 0.00 | 0.00 | 72 | 1009.0 |
| 20260901144034 | 68 | 181 | 2.6 | 5.2 | 0.00 | 0.00 | 0.00 | 72 | 1009.0 |
| 20260901143532 | 68 | 146 | 2.6 | 4.3 | 0.00 | 0.00 | 0.00 | 71 | 1008.9 |
| 20260901143049 | 68 | 178 | 1.7 | 4.3 | 0.00 | 0.00 | 0.00 | 72 | 1008.9 |
| 20260901142533 | 68 | 147 | 2.6 | 5.2 | 0.00 | 0.00 | 0.00 | 72 | 1009.0 |
| 20260901142033 | 68 | 95 | 2.6 | 5.2 | 0.00 | 0.00 | 0.00 | 70 | 1009.1 |
| 20260901141552 | 68 | 141 | 1.7 | 3.5 | 0.00 | 0.00 | 0.00 | 71 | 1009.1 |
| 20260901141030 | 67 | 90 | 1.7 | 5.2 | 0.00 | 0.00 | 0.00 | 73 | 1009.1 |
| 20260901140532 | 67 | 99 | 2.6 | 5.2 | 0.00 | 0.00 | 0.00 | 71 | 1009.2 |
| 20260901140047 | 67 | 94 | 3.5 | 5.2 | 0.00 | 0.00 | 0.00 | 70 | 1009.3 |
| 20260901135532 | 67 | 143 | 1.7 | 4.3 | 0.00 | 0.00 | 0.00 | 72 | 1009.3 |
| 20260901135033 | 66 | 109 | 1.7 | 4.3 | 0.00 | 0.00 | 0.00 | 73 | 1009.3 |
| 20260901134547 | 67 | 0 | 1.7 | 4.3 | 0.00 | 0.00 | 0.00 | 73 | 1009.5 |
| 20260901134031 | 67 | 124 | 2.6 | 4.3 | 0.00 | 0.00 | 0.00 | 73 | 1009.4 |
| 20260901133536 | 67 | 100 | 1.7 | 5.2 | 0.00 | 0.00 | 0.00 | 73 | 1009.4 |
| 20260901133057 | 66 | 156 | 1.7 | 5.2 | 0.00 | 0.00 | 0.00 | 74 | 1009.5 |
| 20260901132531 | 66 | 157 | 1.7 | 5.2 | 0.00 | 0.00 | 0.00 | 73 | 1009.4 |
| 20260901132031 | 66 | 113 | 0.9 | 2.6 | 0.00 | 0.00 | 0.00 | 73 | 1009.5 |
| 20260901131548 | 66 | 158 | 0.9 | 2.6 | 0.00 | 0.00 | 0.00 | 72 | 1009.6 |
| 20260901131035 | 67 | 148 | 0.9 | 3.5 | 0.00 | 0.00 | 0.00 | 71 | 1009.7 |
| 20260901130532 | 68 | 181 | 1.7 | 3.5 | 0.00 | 0.00 | 0.00 | 71 | 1009.7 |
| 20260901130048 | 68 | 233 | 0.9 | 3.5 | 0.00 | 0.00 | 0.00 | 70 | 1009.8 |
| 20260901125531 | 68 | 0 | 1.7 | 6.1 | 0.00 | 0.00 | 0.00 | 69 | 1009.8 |
| 20260901125032 | 67 | 137 | 1.7 | 6.1 | 0.00 | 0.00 | 0.00 | 72 | 1009.8 |
| 20260901124547 | 67 | 119 | 1.7 | 5.2 | 0.00 | 0.00 | 0.00 | 73 | 1009.8 |
| 20260901124033 | 67 | 173 | 2.6 | 5.2 | 0.00 | 0.00 | 0.00 | 72 | 1009.8 |
| 20260901123531 | 67 | 0 | 1.7 | 5.2 | 0.00 | 0.00 | 0.00 | 71 | 1009.9 |
| 20260901123053 | 67 | 107 | 2.6 | 5.2 | 0.00 | 0.00 | 0.00 | 73 | 1009.8 |
| 20260901122531 | 66 | 163 | 0.0 | 4.3 | 0.00 | 0.00 | 0.00 | 73 | 1009.9 |
| 20260901122031 | 66 | 199 | 1.7 | 4.3 | 0.00 | 0.00 | 0.00 | 74 | 1009.9 |
| 20260901121553 | 66 | 98 | 1.7 | 3.5 | 0.00 | 0.00 | 0.00 | 73 | 1009.9 |
| 20260901121035 | 66 | 292 | 0.9 | 3.5 | 0.00 | 0.00 | 0.00 | 74 | 1009.9 |
| 20260901120531 | 65 | 201 | 1.7 | 4.3 | 0.00 | 0.00 | 0.00 | 75 | 1009.9 |
| 20260901120059 | 64 | 212 | 0.9 | 4.3 | 0.00 | 0.00 | 0.00 | 78 | 1009.9 |
| 20260901115531 | 63 | 134 | 1.7 | 3.5 | 0.00 | 0.00 | 0.00 | 77 | 1010.0 |
| 20260901115035 | 64 | 139 | 1.7 | 3.5 | 0.00 | 0.00 | 0.00 | 77 | 1009.9 |
| 20260901114544 | 62 | 357 | 1.7 | 3.5 | 0.00 | 0.00 | 0.00 | 80 | 1009.9 |
| 20260901114031 | 62 | 115 | 0.9 | 4.3 | 0.00 | 0.00 | 0.00 | 80 | 1010.1 |
| 20260901113533 | 62 | 214 | 1.7 | 4.3 | 0.00 | 0.00 | 0.00 | 79 | 1010.0 |
| 20260901113051 | 62 | 233 | 1.7 | 4.3 | 0.00 | 0.00 | 0.00 | 79 | 1010.0 |
| 20260901112533 | 62 | 219 | 0.9 | 5.2 | 0.00 | 0.00 | 0.00 | 80 | 1010.0 |
| 20260901112036 | 62 | 208 | 2.6 | 5.2 | 0.00 | 0.00 | 0.00 | 81 | 1010.0 |
| 20260901111554 | 62 | 0 | 0.9 | 3.5 | 0.00 | 0.00 | 0.00 | 79 | 1010.0 |
| 20260901111031 | 63 | 101 | 1.7 | 3.5 | 0.00 | 0.00 | 0.00 | 80 | 1010.1 |